[[{"header":{"parameterUnit":"m.s-1","parameterCategory":1,"la1":30.2991,"la2":30.254,"lo1":-89.0895,"lo2":-89.0444,"dy":0.0017,"dx":0.0017,"nx":28,"ny":28,"refTime":"2023-09-01T03:00:00:Z","depth":0,"parameterNumber":2,"parameterNumberName":"U-component_of_WINDS"},"data":[0,0,0,0,0,0,0,0,0,0,0,0,0,0,0,0,0,0,0,0,0,0,0,0,0,0,0,0,0,0,0,0,0,0,0,0,0,0,0,0,0,0,0,0,0,0,0,0,0,0,0,0,0,0,0,0,0,0,-2.5483,-2.5484,0,-2.5566,-2.5567,-2.5568,-2.5585,-2.5585,-2.5584,-2.5584,-2.5667,-2.567,-2.5673,0,0,0,0,0,0,0,0,0,0,0,0,0,-2.5339,-2.5341,-2.5483,-2.5484,-2.5485,-2.5566,-2.5567,-2.5568,-2.5585,-2.5585,-2.5584,-2.5583,-2.5666,-2.567,-2.5673,0,0,0,0,0,0,0,0,0,0,0,0,0,-2.5409,-2.5342,-2.5483,-2.5503,-2.5506,-2.5566,-2.5567,-2.5568,-2.5586,-2.5585,-2.5584,-2.5583,-2.5665,-2.5669,-2.5673,-2.5718,0,0,-2.5686,-2.5688,0,0,0,0,0,0,0,0,-2.5405,-2.5415,-2.5499,-2.5502,-2.5505,-2.5564,-2.5547,-2.5618,-2.5586,-2.5555,-2.5584,-2.5582,-2.5634,-2.564,-2.5658,-2.5722,-2.5725,-2.5687,-2.5689,-2.5691,-2.5692,0,0,0,0,0,0,0,-2.54,-2.5411,-2.5516,-2.55,-2.5504,-2.5508,-2.5517,-2.556,-2.5599,-2.5558,-2.5559,-2.5569,-2.5635,-2.5654,-2.566,-2.5726,-2.5687,-2.569,-2.5693,-2.5694,-2.5831,-2.5832,0,0,0,0,0,0,-2.5392,-2.5407,-2.5513,-2.5518,-2.5452,-2.5512,-2.5522,-2.5546,-2.5598,-2.5605,-2.557,-2.557,-2.5647,-2.5655,-2.5663,-2.5718,-2.5691,-2.5695,-2.5697,-2.583,-2.5831,-2.5832,0,0,0,0,0,0,-2.5389,-2.5401,-2.551,-2.5463,-2.5477,-2.5515,-2.5542,-2.5548,-2.5567,-2.5607,-2.5614,-2.5582,-2.5647,-2.5657,-2.5704,-2.5721,-2.5697,-2.5701,-2.5829,-2.583,-2.5832,-2.5828,0,0,0,0,0,0,-2.5385,-2.54,-2.5417,-2.5463,-2.548,-2.5549,-2.5544,-2.5551,-2.5574,-2.5575,-2.562,-2.5627,-2.5647,-2.5698,-2.5708,-2.5726,-2.5704,-2.5827,-2.5829,-2.5831,-2.5827,-2.5829,-2.5832,0,0,0,0,0,-2.5379,-2.5413,-2.5418,-2.5431,-2.5502,-2.555,-2.556,-2.5582,-2.5576,-2.5593,-2.5619,-2.5626,-2.5718,-2.5702,-2.5714,-2.5734,-2.5826,-2.5829,-2.5831,-2.5826,-2.5829,-2.5832,0,0,0,0,0,0,-2.5367,-2.5419,-2.5425,-2.5475,-2.5508,-2.5553,-2.5576,-2.5585,-2.562,-2.5619,-2.5645,-2.5655,-2.5701,-2.5723,-2.5704,-2.578,-2.5772,-2.5777,-2.5764,-2.5767,-2.5769,-2.5762,-2.5707,0,0,0,0,0,-2.537,-2.5405,-2.5449,-2.5488,-2.5504,-2.5537,-2.5559,-2.5574,-2.5609,-2.5623,-2.5652,-2.5686,-2.5723,-2.5747,-2.5783,-2.5831,-2.5841,-2.585,-2.5853,-2.5855,-2.5858,-2.5885,-2.589,-2.5841,-2.5841,-2.5841,0,0,-2.5376,-2.5409,-2.5429,-2.5486,-2.5514,-2.5549,-2.5549,-2.5586,-2.5613,-2.5629,-2.5675,-2.5698,-2.5737,-2.5785,-2.5808,-2.5805,-2.5874,-2.5858,-2.5859,-2.5861,-2.5888,-2.5893,-2.5897,-2.5842,-2.5842,-2.5842,0,0,-2.5405,-2.5434,-2.547,-2.5498,-2.554,-2.5562,-2.557,-2.5615,-2.5631,-2.5678,-2.569,-2.5722,-2.5785,-2.5813,-2.5835,-2.5877,-2.5883,-2.5888,-2.5899,-2.5925,-2.5929,-2.5933,-2.5947,-2.5952,-2.5891,-2.5891,-2.5891,0,-2.5408,-2.5462,-2.5487,-2.5524,-2.5548,-2.5566,-2.5602,-2.5628,-2.5679,-2.5695,-2.5692,-2.5771,-2.5799,-2.5853,-2.5864,-2.5882,-2.5892,-2.5882,-2.5927,-2.5931,-2.5934,-2.5948,-2.5953,-2.5892,-2.5892,-2.5892,-2.5892,0,-2.5462,-2.55,-2.5524,-2.5573,-2.5601,-2.5637,-2.5667,-2.5692,-2.5705,-2.5727,-2.5775,-2.581,-2.5853,-2.5867,-2.588,-2.5924,-2.592,-2.5922,-2.5914,-2.5939,-2.5952,-2.5957,-2.5892,-2.5892,-2.5892,-2.5892,0,0,-2.5484,-2.5548,-2.5556,-2.5579,-2.5627,-2.5657,-2.5694,-2.5737,-2.5757,-2.5793,-2.5825,-2.5878,-2.588,-2.5905,-2.5922,-2.5945,-2.5975,-2.5943,-2.5944,-2.5947,-2.6024,-2.6022,-2.6027,-2.5981,-2.5982,-2.5983,-2.6021,0,-2.5518,-2.5585,-2.5609,-2.5665,-2.5699,-2.5717,-2.575,-2.5783,-2.5805,-2.5838,-2.5863,-2.59,-2.59,-2.5915,-2.5939,-2.5966,-2.599,-2.5964,-2.6009,-2.6011,-2.5997,-2.6034,-2.6032,-2.6066,-2.6026,-2.6027,-2.6028,0,-2.5566,-2.5603,-2.5661,-2.5706,-2.5721,-2.575,-2.5792,-2.5823,-2.5861,-2.5876,-2.5905,-2.592,-2.596,-2.5951,-2.6007,-2.5988,-2.6009,-2.6025,-2.6027,-2.603,-2.6019,-2.6038,-2.6078,-2.6082,-2.6036,-2.6035,-2.6035,0,-2.5575,-2.5639,-2.5682,-2.5701,-2.5754,-2.5774,-2.5797,-2.5835,-2.5859,-2.5896,-2.5912,-2.5953,-2.5974,-2.6006,-2.6031,-2.6023,-2.6084,-2.6078,-2.6097,-2.6096,-2.6107,-2.6106,-2.6149,-2.6123,-2.6123,-2.6123,-2.6123,0,-2.5609,-2.5644,-2.5687,-2.5713,-2.5753,-2.5781,-2.5819,-2.5844,-2.5877,-2.5909,-2.5927,-2.5956,-2.5989,-2.6023,-2.6043,-2.6086,-2.6096,-2.6108,-2.6113,-2.6106,-2.6104,-2.6118,-2.6116,-2.6124,-2.6124,-2.6124,-2.6123,0,-2.5624,-2.5654,-2.5703,-2.5749,-2.5762,-2.5789,-2.5829,-2.5856,-2.588,-2.5919,-2.593,-2.5968,-2.6008,-2.6038,-2.609,-2.6104,-2.6149,-2.6154,-2.6136,-2.6138,-2.6155,-2.6152,-2.6207,-2.6216,-2.6185,-2.6185,-2.6186,0,-2.5644,-2.5671,-2.5721,-2.5743,-2.5767,-2.5803,-2.5828,-2.5857,-2.5883,-2.5929,-2.595,-2.5992,-2.6026,-2.6091,-2.6122,-2.6163,-2.6168,-2.6185,-2.6174,-2.6166,-2.6167,-2.6164,-2.6167,-2.6186,-2.6186,-2.6186,-2.6186,0,-2.5674,-2.5688,-2.5723,-2.5765,-2.5794,-2.5828,-2.5862,-2.588,-2.5915,-2.5943,-2.5984,-2.6012,-2.6066,-2.6107,-2.615,-2.6174,-2.6186,-2.619,-2.6196,-2.6188,-2.6176,-2.6181,-2.6138,-2.6188,-2.6188,-2.6187,-2.6187,-2.6187,-2.5691,-2.5716,-2.5755,-2.5795,-2.5823,-2.5855,-2.5882,-2.591,-2.5945,-2.5991,-2.6007,-2.605,-2.6088,-2.6148,-2.6173,-2.6207,-2.6206,-2.6216,-2.6218,-2.6219,-2.6218,-2.6172,-2.6215,-2.6215,-2.6215,-2.6215,-2.6215,0,-2.5722,-2.5748,-2.5784,-2.5831,-2.5862,-2.5872,-2.591,-2.5935,-2.5973,-2.6008,-2.6042,-2.6091,-2.6131,-2.6167,-2.6209,-2.6229,-2.6236,-2.6239,-2.6237,-2.6242,-2.6217,-2.6207,-2.6233,-2.6233,-2.6233,-2.6233,-2.6233,-2.6233,-2.5741,-2.5784,-2.5802,-2.586,-2.5886,-2.5928,-2.5949,-2.5979,-2.6007,-2.606,-2.6094,-2.6117,-2.6152,-2.6197,-2.6235,-2.6245,-2.6259,-2.6261,-2.6271,-2.6246,-2.6244,-2.6242,-2.6232,-2.6264,-2.6264,-2.6293,-2.6294,-2.6294]},{"header":{"parameterUnit":"m.s-1","parameterCategory":1,"la1":30.2991,"la2":30.254,"lo1":-89.0895,"lo2":-89.0444,"dy":0.0017,"dx":0.0017,"nx":28,"ny":28,"refTime":"2023-09-01T03:00:00:Z","depth":0,"parameterNumber":3,"parameterNumberName":"V-component_of_WINDS"},"data":[0,0,0,0,0,0,0,0,0,0,0,0,0,0,0,0,0,0,0,0,0,0,0,0,0,0,0,0,0,0,0,0,0,0,0,0,0,0,0,0,0,0,0,0,0,0,0,0,0,0,0,0,0,0,0,0,0,0,2.6972,2.6972,0,2.6964,2.6964,2.6964,2.6913,2.6912,2.691,2.6909,2.6901,2.6902,2.6903,0,0,0,0,0,0,0,0,0,0,0,0,0,2.6945,2.6945,2.6972,2.6972,2.6972,2.6964,2.6964,2.6964,2.6913,2.6912,2.691,2.6909,2.6901,2.6902,2.6903,0,0,0,0,0,0,0,0,0,0,0,0,0,2.6949,2.6946,2.6972,2.6946,2.6943,2.6964,2.6964,2.6964,2.6913,2.6911,2.691,2.6908,2.69,2.6902,2.6903,2.6949,0,0,2.6907,2.6908,0,0,0,0,0,0,0,0,2.6948,2.695,2.695,2.6948,2.6945,2.6937,2.6951,2.6959,2.6914,2.6925,2.6909,2.6907,2.6915,2.6915,2.6917,2.6948,2.6948,2.6908,2.6908,2.6909,2.6909,0,0,0,0,0,0,0,2.6948,2.695,2.6969,2.695,2.6947,2.6934,2.6933,2.6952,2.693,2.6924,2.692,2.692,2.6913,2.6916,2.6917,2.6948,2.6908,2.6909,2.691,2.691,2.7015,2.7017,0,0,0,0,0,0,2.6952,2.695,2.6969,2.6969,2.6942,2.6936,2.6935,2.6942,2.693,2.6926,2.6921,2.6917,2.6915,2.6915,2.6916,2.6968,2.6909,2.691,2.6911,2.7013,2.7016,2.7018,0,0,0,0,0,0,2.6951,2.6954,2.6969,2.6958,2.6959,2.6939,2.6947,2.6943,2.6945,2.6928,2.6924,2.6928,2.6913,2.6914,2.6941,2.6967,2.6911,2.6912,2.7011,2.7014,2.7017,2.7072,0,0,0,0,0,0,2.6951,2.6954,2.6971,2.6959,2.696,2.6994,2.6949,2.6944,2.6948,2.6943,2.6934,2.693,2.6912,2.6939,2.6942,2.6968,2.6913,2.7008,2.7012,2.7016,2.7068,2.7077,2.7084,0,0,0,0,0,2.695,2.6987,2.6972,2.6975,2.6981,2.6996,2.6996,2.6974,2.695,2.6967,2.6956,2.6931,2.6964,2.6942,2.6945,2.6972,2.7007,2.7011,2.7015,2.7064,2.7075,2.7084,0,0,0,0,0,0,2.7003,2.6985,2.6968,2.7003,2.7001,2.6987,2.7007,2.6986,2.6992,2.6987,2.6959,2.6958,2.6988,2.6983,2.6959,2.7015,2.6981,2.6986,2.7017,2.7027,2.7035,2.7035,2.6914,0,0,0,0,0,2.7018,2.7032,2.7016,2.7048,2.7048,2.7028,2.7034,2.7017,2.7014,2.7013,2.7004,2.7003,2.7013,2.702,2.7028,2.7068,2.7064,2.7087,2.7095,2.7102,2.7107,2.7126,2.7136,2.7032,2.7032,2.7032,0,0,2.7051,2.7043,2.7053,2.7058,2.7055,2.7069,2.7028,2.7045,2.7055,2.7016,2.704,2.7034,2.703,2.7063,2.7077,2.7059,2.7135,2.7108,2.7113,2.7114,2.7132,2.7142,2.715,2.7035,2.7035,2.7034,0,0,2.7117,2.7113,2.7138,2.7136,2.7132,2.7118,2.7125,2.7114,2.7108,2.7132,2.7103,2.7115,2.7133,2.7131,2.7133,2.72,2.7176,2.7203,2.7245,2.7265,2.7273,2.728,2.7302,2.7311,2.7208,2.7208,2.7208,0,2.7158,2.7178,2.7154,2.7173,2.7176,2.7142,2.7167,2.7166,2.7165,2.7168,2.7149,2.717,2.7166,2.7197,2.7214,2.7217,2.7223,2.7203,2.7273,2.728,2.7287,2.7308,2.7317,2.7211,2.7211,2.7211,2.721,0,2.7228,2.7243,2.7264,2.7263,2.7269,2.7292,2.7271,2.728,2.7263,2.7252,2.7276,2.727,2.7276,2.7282,2.7266,2.7312,2.7301,2.7278,2.7243,2.73,2.7319,2.7328,2.7216,2.7215,2.7214,2.7213,0,0,2.7326,2.7312,2.732,2.7319,2.7312,2.7323,2.7344,2.735,2.7358,2.7359,2.7375,2.7391,2.737,2.7372,2.7355,2.7373,2.7425,2.7347,2.7347,2.7361,2.7474,2.749,2.75,2.741,2.7411,2.7412,2.7473,0,2.7388,2.7423,2.7402,2.744,2.7453,2.742,2.7438,2.7436,2.7427,2.7436,2.7426,2.7437,2.7409,2.741,2.7426,2.7415,2.7447,2.7411,2.7424,2.7425,2.7425,2.751,2.7527,2.7585,2.7481,2.7482,2.7483,0,2.7465,2.7469,2.7508,2.7498,2.7502,2.7519,2.7522,2.7533,2.753,2.7521,2.7524,2.7503,2.7523,2.749,2.7516,2.7492,2.7497,2.7493,2.7495,2.7494,2.7457,2.751,2.7603,2.7611,2.7495,2.7494,2.7493,0,2.7531,2.7546,2.7571,2.7571,2.7561,2.7573,2.7569,2.7564,2.7569,2.7573,2.7575,2.7582,2.7585,2.759,2.7571,2.7549,2.76,2.7566,2.7593,2.7594,2.7604,2.7604,2.7698,2.761,2.761,2.761,2.761,0,2.7602,2.7627,2.76,2.7615,2.7642,2.7619,2.7646,2.7639,2.7635,2.7648,2.7621,2.7634,2.7609,2.762,2.7606,2.763,2.7632,2.7625,2.7621,2.7627,2.7628,2.7628,2.7623,2.7612,2.7612,2.7611,2.7611,0,2.768,2.7663,2.7688,2.7676,2.7674,2.7694,2.7683,2.7697,2.7686,2.7703,2.7706,2.7688,2.7699,2.7682,2.7691,2.7682,2.7714,2.7705,2.7715,2.7712,2.774,2.7737,2.7837,2.7849,2.7755,2.7756,2.7756,0,2.7725,2.7743,2.7734,2.774,2.7738,2.7749,2.7754,2.7732,2.7738,2.7736,2.775,2.7759,2.7764,2.7784,2.7772,2.7779,2.7768,2.7803,2.7769,2.7774,2.7767,2.7766,2.7767,2.7809,2.7811,2.7811,2.7812,0,2.7808,2.7799,2.7806,2.7811,2.7817,2.782,2.7821,2.7828,2.7805,2.7813,2.7824,2.7829,2.7838,2.7847,2.7851,2.7847,2.7826,2.7823,2.783,2.7835,2.784,2.7837,2.7733,2.7821,2.782,2.7819,2.7819,2.7818,2.787,2.7884,2.7879,2.7889,2.7887,2.7888,2.79,2.7891,2.7899,2.7905,2.7892,2.7906,2.7902,2.7906,2.7904,2.7915,2.79,2.791,2.7912,2.7914,2.7918,2.784,2.7916,2.7916,2.7915,2.7915,2.7915,0,2.795,2.7945,2.7954,2.7956,2.7963,2.7943,2.7943,2.795,2.7963,2.7961,2.7968,2.798,2.7989,2.7978,2.7985,2.7995,2.7986,2.7998,2.7996,2.7995,2.7932,2.7925,2.8005,2.8005,2.8005,2.8005,2.8005,2.8005,2.7992,2.8015,2.8005,2.8027,2.8022,2.8036,2.8037,2.8038,2.8037,2.8052,2.8059,2.8052,2.8047,2.8053,2.806,2.8057,2.806,2.8075,2.8068,2.8009,2.8,2.7991,2.7985,2.8076,2.8077,2.8131,2.8131,2.8132]}]]